Regional Weather Roundup
Issued by NWS Spokane, WA

Home | Current Version | Previous Version | Text Only | Print | Product List | Glossary On
Versions: 1 2 3 4 5 6 7 8 9 10 11 12 13 14 15 16 17 18 19 20 21 22 23 24 25 26 27 28 29 30 31 32 33 34 35 36 37 38 39 40 41 42 43 44 45 46 47 48 49 50
000
NZUS01 KOTX 281405
RWROTX
EASTERN WASHINGTON/NORTHERN IDAHO ROUNDUP
NATIONAL WEATHER SERVICE, SPOKANE WA
700 AM PDT THU AUG 28 2014

Note: "fair" indicated few or no clouds below 12,000 feet with no
significant weather and/or obstructions to visibility.

...NORTHEAST WASHINGTON AND NORTHERN IDAHO PANHANDLE...

CITY           SKY/WX    TMP DP  RH WIND       PRES   REMARKS
SPOKANE INTL   PTCLDY    61  52  72 S9        29.99R
SPOKANE DOWNTO CLEAR     67  52  58 S7        29.99R
COEUR D ALENE  CLEAR     63  52  67 SW3       30.00R
DEER PARK      CLEAR     62  49  62 S14       29.98R
SANDPOINT      CLEAR     54  54 100 SW5       29.96R

...SOUTHEAST WASHINGTON AND SOUTHERN IDAHO PANHANDLE...

CITY           SKY/WX    TMP DP  RH WIND       PRES   REMARKS
WALLA WALLA    CLEAR     70  52  52 S8        30.02R
PULLMAN/MOSCOW CLEAR     68  52  56 W12       30.06R
LEWISTON       CLEAR     67  49  52 SE5       30.00R
LOWELL           N/A     54  51  90 VRB3      30.10R

...COLUMBIA BASIN...

CITY           SKY/WX    TMP DP  RH WIND       PRES   REMARKS
EPHRATA        PTCLDY    73  46  38 MISG      29.95R
MOSES LAKE     CLEAR     68  52  56 SW8       29.96R
TRI CITIES     CLEAR     61  58  90 CALM      29.97S
HERMISTON      CLEAR     61  53  75 CALM      29.99R
PENDLETON      CLEAR     68  52  56 S6        30.03R

...EAST SLOPES CASCADES...

CITY           SKY/WX    TMP DP  RH WIND       PRES   REMARKS
THE DALLES     CLEAR     69  56  62 NW12      30.01R
YAKIMA         PTCLDY    58  50  75 CALM      30.00R
ELLENSBURG     MOCLDY    67  52  58 NW17      30.02R
WENATCHEE      CLOUDY    70  49  47 CALM      29.97R
OMAK           PTCLDY    64  48  56 CALM      29.95R

...SOUTHERN BRITISH COLUMBIA...

CITY           SKY/WX    TMP DP  RH WIND       PRES   REMARKS

...WESTERN MONTANA...

CITY           SKY/WX    TMP DP  RH WIND       PRES   REMARKS
MISSOULA       MOSUNNY   53  46  77 CALM      30.09S

...NEIGHBORING CITIES...

CITY           SKY/WX    TMP DP  RH WIND       PRES   REMARKS
SEATTLE        CLOUDY    60  56  86 S7        30.10R



USA.gov is the U.S. government's official web portal to all federal, state and local government web resources and services.